Location: Brantley
(31.5822°N, 86.2569°W)
Time: 12:57:16
(UTC+00:00)

Courier 1B - Pass Details

Date: 17 February 2026
Orbit: 962 x 1208 km, 28.3° (Epoch: 11 March)

Event Time Altitude Azimuth Distance (km) Brightness Sun altitude
Rises 03:49:27 0° 265° (W) 4,001 11.1 -54.3°
Enters shadow 03:51:41 - 263° (W) 3,247 10.6 -54.8°
Reaches altitude 10° 03:52:13 10° 263° (W) 3,069 - -54.9°
Maximum altitude 03:59:51 71° 181° (S) 1,257 - -56.3°
Drops below altitude 10° 04:07:41 10° 99° (E) 3,141 - -57.7°
Sets 04:10:33 0° 97° (E) 4,100 - -58.3°
